Home > Weather > Plano > Past weeks

Flag for U.S.A. Weather for the Past 2 Weeks in Plano, Texas, U.S.A.

Now
64 °F

Sunny.


Feels Like: 64 °F
Forecast: 49 / 67 °F
Wind: 8 mph from South

Location: McKinney Municipal Airport

Current Time: Feb 10, 2016 at 7:19:49 PM

Latest Report: Feb 10, 2016 at 5:53 PM


Visibility: 10 mi

Pressure: 30.10 "Hg

Humidity: 33%

Dew point: 34 °F

Location of PlanoLocation

Historic Weather in Plano — Graph

°F

Plano Temperature Yesterday

Maximum temperature yesterday: 60 °F (at 2:53 PM)
Minimum temperature yesterday: 36 °F (at 7:53 AM)
Average temperature yesterday: 46 °F

High & Low Weather Summary for the Past Weeks

 TemperatureHumidityPressure
High75 °F (Jan 29, 1:53 PM)96% (Feb 5, 5:53 AM)30.54 "Hg (Feb 5, 5:53 AM)
Low27 °F (Feb 4, 5:53 AM)14% (Feb 8, 3:53 PM)29.55 "Hg (Feb 1, 9:53 PM)
Average49 °F53%30.13 "Hg
* Reported Jan 26 5:53 PM — Feb 10 5:53 PM, Plano, Weather by CustomWeather, © 2016

Note: Actual official high and low records may vary slightly from our data, if they occured in-between our weather recording intervals... More about our weather records

Advertising

Plano Weather History for the Previous 24 Hours

 ConditionsComfort  
Time TempWeatherWind HumidityBarometerVisibility
5:53 PM
Wed, Feb 10
64 °FSunny.8 mph33%30.10 "Hg10 mi
4:53 PM71 °FSunny.13 mph23%30.11 "Hg10 mi
3:53 PM69 °FSunny.14 mph24%30.13 "Hg10 mi
2:53 PM67 °FSunny.15 mph25%30.17 "Hg10 mi
1:53 PM64 °FSunny.20 mph28%30.20 "Hg10 mi
12:53 PM62 °FSunny.14 mph29%30.25 "Hg10 mi
11:53 AM57 °FSunny.14 mph32%30.30 "Hg10 mi
10:53 AM52 °FSunny.9 mph35%30.34 "Hg10 mi
9:53 AM48 °FSunny.10 mph39%30.36 "Hg10 mi
8:53 AM41 °FSunny.3 mph60%30.38 "Hg10 mi
7:53 AM32 °FSunny.No wind75%30.36 "Hg10 mi
6:53 AM31 °FClear.No wind76%30.37 "Hg10 mi
5:53 AM31 °FClear.No wind79%30.36 "Hg10 mi
4:53 AM32 °FClear.No wind79%30.37 "Hg10 mi
3:53 AM33 °FClear.No wind72%30.36 "Hg10 mi
2:53 AM32 °FClear.3 mph69%30.37 "HgN/A
1:53 AM37 °FClear.No wind57%30.36 "HgN/A
12:53 AM38 °FClear.6 mph53%30.35 "Hg10 mi
11:53 PM
Tue, Feb 9
40 °FClear.6 mph51%30.35 "Hg10 mi
10:53 PM42 °FClear.6 mph49%30.34 "Hg10 mi
9:53 PM45 °FClear.8 mph44%30.32 "Hg10 mi
8:53 PM47 °FClear.9 mph41%30.32 "Hg10 mi
7:53 PM49 °FClear.12 mph38%30.32 "Hg10 mi
Weather by CustomWeather, © 2016

See weather overviewHow to use our weather pages